Home > Weather > Niš > Past weeks

Flag for Serbia Past Weather in Niš, Serbia — Yesterday and Last 2 Weeks

Now
52 °F

Clear.


Feels Like: 52 °F
Forecast: 54 / 85 °F
Wind: 2 mph from Southwest

Location: Nis Airport

Current Time: Aug 27, 2016 at 3:35:29 AM

Latest Report: Aug 27, 2016 at 3:00 AM


Visibility: 10 mi

Pressure: 30.21 "Hg

Humidity: 100%

Dew Point: 52 °F

Location of NišLocation

Past Weather in Niš — Graph

°F

Niš Temperature Yesterday

Maximum temperature yesterday: 84 °F (at 4:00 PM)
Minimum temperature yesterday: 57 °F (at 6:30 AM)
Average temperature yesterday: 72 °F

High & Low Weather Summary for the Past Weeks

 TemperatureHumidityPressure
High91 °F (Aug 17, 4:00 PM)100% (Aug 12, 2:00 AM)30.30 "Hg (Aug 12, 2:00 AM)
Low46 °F (Aug 13, 6:30 AM)24% (Aug 17, 4:00 PM)29.77 "Hg (Aug 17, 4:30 PM)
Average69 °F76%30.08 "Hg
* Reported Aug 12 2:00 AM — Aug 27 2:30 AM, Niš, Weather by CustomWeather, © 2016

Note: Actual official high and low records may vary slightly from our data, if they occured in-between our weather recording intervals... More about our weather records

Advertising

Niš Weather History for the Previous 24 Hours

Scroll right to see more
 ConditionsComfort  
Time TempWeatherWind HumidityBarometerVisibility
2:30 AM
Sat, Aug 27
54 °FClear.1 mph94%30.21 "Hg10 mi
2:00 AM55 °FClear.2 mph88%30.21 "Hg10 mi
1:30 AM57 °FClear.2 mph82%30.21 "Hg10 mi
1:00 AM57 °FClear.1 mph82%30.21 "Hg10 mi
12:30 AM61 °FClear.2 mph72%30.21 "Hg10 mi
12:00 AM63 °FClear.2 mph68%30.18 "Hg10 mi
11:30 PM
Fri, Aug 26
63 °FClear.7 mph73%30.18 "Hg10 mi
11:00 PM64 °FClear.1 mph64%30.18 "Hg10 mi
10:30 PM68 °FPassing clouds.3 mph56%30.18 "HgN/A
10:00 PM64 °FClear.2 mph64%30.18 "Hg10 mi
9:30 PM72 °FClear.2 mph47%30.18 "Hg10 mi
9:00 PM72 °FPassing clouds.6 mph50%30.15 "HgN/A
8:30 PM73 °FPassing clouds.6 mph44%30.15 "HgN/A
8:00 PM75 °FPassing clouds.8 mph41%30.15 "HgN/A
7:30 PM75 °FSunny.8 mph44%30.12 "Hg10 mi
7:00 PM77 °FPassing clouds.7 mph42%30.12 "HgN/A
6:30 PM81 °FPassing clouds.6 mph37%30.12 "HgN/A
6:00 PM82 °FPassing clouds.7 mph35%30.12 "HgN/A
5:30 PM82 °FPassing clouds.7 mph35%30.12 "HgN/A
5:00 PM82 °FPassing clouds.10 mph35%30.12 "HgN/A
4:30 PM84 °FPassing clouds.8 mph33%30.12 "HgN/A
4:00 PM84 °FScattered clouds.7 mph33%30.12 "HgN/A
3:30 PM82 °FScattered clouds.7 mph37%30.12 "HgN/A
3:00 PM82 °FScattered clouds.9 mph42%30.12 "HgN/A
2:30 PM81 °FScattered clouds.9 mph45%30.12 "HgN/A
2:00 PM81 °FScattered clouds.6 mph48%30.12 "HgN/A
1:30 PM82 °FScattered clouds.8 mph48%30.15 "HgN/A
1:00 PM79 °FScattered clouds.7 mph54%30.15 "HgN/A
12:30 PM81 °FScattered clouds.5 mph48%30.15 "HgN/A
12:00 PM79 °FScattered clouds.5 mph51%30.15 "HgN/A
11:30 AM81 °FScattered clouds.1 mph48%30.15 "HgN/A
11:00 AM79 °FPassing clouds.1 mph54%30.18 "HgN/A
10:30 AM77 °FPassing clouds.2 mph61%30.18 "HgN/A
10:00 AM75 °FPassing clouds.1 mph65%30.18 "HgN/A
9:30 AM73 °FPassing clouds.1 mph69%30.18 "HgN/A
9:00 AM72 °FSunny.1 mph73%30.18 "Hg10 mi
8:30 AM68 °FSunny.2 mph83%30.18 "Hg10 mi
8:00 AM68 °FSunny.1 mph88%30.18 "Hg10 mi
7:30 AM64 °FSunny.No wind100%30.18 "Hg10 mi
7:00 AM61 °FSunny.1 mph100%30.18 "Hg10 mi
6:30 AM57 °FClear.2 mph100%30.18 "Hg10 mi
6:00 AM61 °FClear.No wind100%30.15 "Hg10 mi
5:30 AM61 °FClear.2 mph100%30.15 "Hg10 mi
5:00 AM61 °FClear.No wind100%30.15 "Hg10 mi
4:30 AM59 °FClear.1 mph100%30.15 "Hg10 mi
4:00 AM63 °FClear.1 mph94%30.15 "Hg10 mi
3:30 AM63 °FClear.No wind94%30.12 "Hg10 mi
3:00 AM63 °FClear.1 mph94%30.12 "Hg10 mi
Weather by CustomWeather, © 2016

See weather overviewHow to use our weather pages